Location: Newark
(43.9494°N, 6.8108°E)
Time: 05:58:09
(UTC+00:00)

Vanguard 3 - Visible Passes

Search period start: 17 October 2019 00:00
Search period end: 27 October 2019 00:00
Orbit: 508 x 3262 km, 33.3° (Epoch: 15 October)

Date Brightness Start Highest point End Pass type
(mag) Time Alt. Az. Time Alt. Az. Time Alt. Az.
17 Oct 9.7 02:11:55 15° SE 02:11:55 15° SE 02:13:28 10° ESE visible
17 Oct 8.9 04:16:30 18° SW 04:19:31 25° S 04:26:47 10° SE visible
18 Oct 8.9 03:06:53 24° SSE 03:06:53 24° SSE 03:11:39 10° SE visible
18 Oct 9.5 05:13:03 10° WSW 05:17:29 17° SSW 05:23:28 10° SSE visible
19 Oct 8.9 04:01:52 18° SSW 04:03:27 20° S 04:09:04 10° SSE visible
20 Oct 9.4 02:52:17 16° SSE 02:52:17 16° SSE 02:54:28 10° SE visible
20 Oct 9.6 04:58:40 10° SW 05:01:21 12° SSW 05:04:32 10° S visible
21 Oct 9.2 03:47:19 15° SSW 03:47:25 15° SSW 03:51:11 10° SSE visible
